CW1231 Lillian AL US current weather conditions

sailwx.info

Wind from 098

Air temperature 26.7° C
Dewpoint 24.1° C

Last reported at 2019-Jul-19 03:06 UTC.
Time now 2019-Jul-19 03:37 UTC

Location: N 30°23' W 087°29'.
View on Google Maps.

See reports from other nearby stations

  
Tides and Currents Weather Stations Pressure Air Temp Water Temp Dewpoint Dewpoint Depression Visibility Wind Speed Wind Dir Waves Ship Positions
date/time (UTC)wind fromknots sea level pressurealtimeterstation pressurevisibilityair tempwater tempwave heightnotes
2019-Jul-19 03:06 098 26.7
2019-Jul-19 03:01 098 26.7
2019-Jul-19 02:36 098 27.2
2019-Jul-19 02:31 098 27.2
2019-Jul-19 02:06 098 27.8
2019-Jul-19 02:01 098 27.8
2019-Jul-19 01:36 098 28.3
2019-Jul-19 01:31 098 28.3
2019-Jul-19 01:06 098 28.9
2019-Jul-19 01:01 098 28.9
2019-Jul-19 00:36 179 29.4
2019-Jul-19 00:31 179 29.4
2019-Jul-19 00:06 179 29.4
2019-Jul-19 00:01 179 29.4
2019-Jul-18 23:36 179 30.0
2019-Jul-18 23:31 179 30.6
2019-Jul-18 23:06 179 30.6
2019-Jul-18 23:01 179 30.6
2019-Jul-18 22:36 179 31.1
2019-Jul-18 22:31 179 31.1
2019-Jul-18 22:06 175 0 gusting 2 31.7
2019-Jul-18 22:01 177 1 gusting 2 31.7
2019-Jul-18 21:36 185 0 gusting 2 31.7
2019-Jul-18 21:31 185 0 gusting 2 31.7
2019-Jul-18 21:06 189 0 gusting 2 31.7
2019-Jul-18 21:01 189 0 gusting 2 31.7
2019-Jul-18 20:36 188 0 gusting 2 32.2
2019-Jul-18 20:31 178 0 gusting 2 32.2
2019-Jul-18 20:06 182 1 gusting 2 31.1
2019-Jul-18 20:01 223 0 gusting 2 30.0
2019-Jul-18 19:36 303 27.8
2019-Jul-18 19:31 303 27.2
2019-Jul-18 19:06 303 27.8
2019-Jul-18 19:01 303 27.8
2019-Jul-18 18:36 268 31.7
2019-Jul-18 18:31 270 0 gusting 6 32.2
2019-Jul-18 18:06 181 0 gusting 2 32.8
2019-Jul-18 18:01 179 1 gusting 2 32.8
2019-Jul-18 17:36 174 0 gusting 2 32.8
2019-Jul-18 17:31 178 1 gusting 2 32.8
2019-Jul-18 17:06 186 0 gusting 2 32.8
2019-Jul-18 17:01 181 1 gusting 2 32.8
2019-Jul-18 16:36 184 0 gusting 2 32.8
2019-Jul-18 16:31 184 1 gusting 2 32.8
2019-Jul-18 16:06 291 0 gusting 2 32.2
2019-Jul-18 16:01 314 32.2
2019-Jul-18 15:36 316 31.7
2019-Jul-18 15:31 316 31.1
2019-Jul-18 15:06 313 31.1
2019-Jul-18 15:01 313 31.1
2019-Jul-18 14:36 315 30.0
2019-Jul-18 14:31 315 0 gusting 2 30.0
2019-Jul-18 14:06 317 29.4
2019-Jul-18 14:01 317 0 gusting 1 28.9
2019-Jul-18 13:36 310 27.8
2019-Jul-18 13:31 310 27.2
2019-Jul-18 13:06 309 26.1
2019-Jul-18 13:01 309 26.1
2019-Jul-18 12:36 309 24.4
2019-Jul-18 12:31 309 24.4
2019-Jul-18 12:06 309 23.3
2019-Jul-18 12:01 309 23.3
2019-Jul-18 11:36 309 23.3
2019-Jul-18 11:31 309 23.3
2019-Jul-18 11:06 298 23.3
2019-Jul-18 11:01 298 23.3
2019-Jul-18 10:36 298 23.3
2019-Jul-18 10:31 298 23.3
2019-Jul-18 10:06 298 23.3
2019-Jul-18 10:01 298 23.3
2019-Jul-18 09:36 298 23.3
2019-Jul-18 09:31 298 23.3
2019-Jul-18 09:06 298 23.3
2019-Jul-18 09:01 298 23.3
2019-Jul-18 08:36 298 23.9
2019-Jul-18 08:31 298 23.9
2019-Jul-18 08:06 298 23.9
2019-Jul-18 08:01 298 23.9
2019-Jul-18 07:36 298 23.9
2019-Jul-18 07:31 298 24.4
2019-Jul-18 07:06 298 24.4
2019-Jul-18 07:01 298 24.4
2019-Jul-18 06:36 298 24.4
2019-Jul-18 06:31 298 24.4
2019-Jul-18 06:06 298 25.0
2019-Jul-18 06:01 298 25.0
2019-Jul-18 05:36 298 25.0
2019-Jul-18 05:31 298 25.0
2019-Jul-18 05:06 298 25.6
2019-Jul-18 05:01 298 25.6
2019-Jul-18 04:36 298 25.6
2019-Jul-18 04:31 298 25.6
2019-Jul-18 04:06 298 25.6
2019-Jul-18 04:01 298 25.6
2019-Jul-18 03:36 298 25.6
2019-Jul-18 03:31 298 25.6
2019-Jul-18 03:06 298 26.1
2019-Jul-18 03:01 298 26.1
2019-Jul-18 02:36 298 26.7
2019-Jul-18 02:31 298 26.7
2019-Jul-18 02:06 298 27.2
2019-Jul-18 02:01 298 27.2
2019-Jul-18 01:36 298 28.3
2019-Jul-18 01:31 298 28.3
2019-Jul-18 01:06 175 28.3
2019-Jul-18 01:01 180 28.9
2019-Jul-18 00:36 181 29.4
2019-Jul-18 00:31 181 29.4
2019-Jul-18 00:06 181 30.0
2019-Jul-18 00:01 181 30.0
2019-Jul-17 23:36 181 0 gusting 2 30.6
2019-Jul-17 23:31 180 0 gusting 2 30.6
2019-Jul-17 23:06 183 0 gusting 2 31.7
2019-Jul-17 23:01 182 0 gusting 2 31.7
2019-Jul-17 22:36 185 0 gusting 2 32.2
2019-Jul-17 22:31 186 1 gusting 2 32.2
2019-Jul-17 22:06 184 0 gusting 2 31.7
2019-Jul-17 22:01 180 1 gusting 2 32.2
2019-Jul-17 21:36 182 1 gusting 2 32.8
2019-Jul-17 21:31 182 1 gusting 2 32.2
2019-Jul-17 21:06 178 0 gusting 2 32.8
2019-Jul-17 21:01 177 1 gusting 2 32.8
2019-Jul-17 20:36 173 0 gusting 2 33.3
2019-Jul-17 20:31 178 1 gusting 2 33.3
2019-Jul-17 20:06 187 1 gusting 2 33.3
2019-Jul-17 20:01 188 0 gusting 2 33.3
2019-Jul-17 19:36 174 1 gusting 2 31.7
2019-Jul-17 19:31 181 1 gusting 4 32.2
2019-Jul-17 19:06 188 0 gusting 2 33.3
2019-Jul-17 19:01 188 0 gusting 4 33.3
2019-Jul-17 18:36 175 1 gusting 2 33.3
2019-Jul-17 18:31 175 1 gusting 2 33.3
2019-Jul-17 18:06 182 0 gusting 2 33.3
2019-Jul-17 18:01 184 0 gusting 2 33.3
2019-Jul-17 17:36 183 1 gusting 2 32.8
2019-Jul-17 17:31 191 0 gusting 2 32.8
2019-Jul-17 17:06 229 33.3
2019-Jul-17 17:01 238 32.8
2019-Jul-17 16:36 251 31.7
2019-Jul-17 16:31 252 31.1
2019-Jul-17 16:06 252 31.7
2019-Jul-17 16:01 252 0 gusting 1 31.7
2019-Jul-17 15:36 252 31.7
2019-Jul-17 15:31 252 31.7
2019-Jul-17 15:06 252 31.1
2019-Jul-17 15:01 252 30.6
2019-Jul-17 14:36 243 30.0
2019-Jul-17 14:31 243 30.0
2019-Jul-17 14:06 238 28.3
2019-Jul-17 14:01 233 28.3
2019-Jul-17 13:36 200 26.7
2019-Jul-17 13:31 200 26.7
2019-Jul-17 13:06 200 26.1
2019-Jul-17 13:01 200 25.6
2019-Jul-17 12:36 199 23.9
2019-Jul-17 12:31 199 23.9
2019-Jul-17 12:06 199 22.8
2019-Jul-17 12:01 199 22.8
2019-Jul-17 11:36 199 22.8
2019-Jul-17 11:31 199 22.8
2019-Jul-17 11:06 199 22.8
2019-Jul-17 11:01 199 22.8
2019-Jul-17 10:36 199 22.8
2019-Jul-17 10:31 199 22.8
2019-Jul-17 10:06 199 23.3
2019-Jul-17 10:01 199 23.3
2019-Jul-17 09:36 199 23.3
2019-Jul-17 09:31 199 23.3
2019-Jul-17 09:06 199 23.3
2019-Jul-17 09:01 199 23.3
2019-Jul-17 08:36 199 23.3
2019-Jul-17 08:31 199 23.3
2019-Jul-17 08:06 199 23.3
2019-Jul-17 08:01 199 23.3
2019-Jul-17 07:36 199 23.9
2019-Jul-17 07:31 199 23.9
2019-Jul-17 07:06 199 23.9
2019-Jul-17 07:01 199 23.9
2019-Jul-17 06:36 199 23.9
2019-Jul-17 06:31 199 23.9
2019-Jul-17 06:06 199 23.9
2019-Jul-17 06:01 199 23.9
2019-Jul-17 05:36 199 23.9
2019-Jul-17 05:31 199 23.9
2019-Jul-17 05:06 199 24.4
2019-Jul-17 05:01 199 24.4
2019-Jul-17 04:36 199 24.4
2019-Jul-17 04:31 199 24.4
2019-Jul-17 04:06 199 25.0
2019-Jul-17 04:01 199 25.0
2019-Jul-17 03:36 199 25.0
2019-Jul-17 03:31 199 25.0
2019-Jul-17 03:06 199 25.6
2019-Jul-17 03:01 199 25.6